Weather in Kichketan

Russia / Republic of Tatarstan     56°04′22″N   52°50′29″E
temp.,
°C
wind,
m/s
gust,
m/s
humid.,
%
clouds,
%
prec.,
mm/h
press.,
hPa
HPBL,
m
1 march, mon
mon100:00−20nnw34950 0.0 101465
03:00−21nnw359513 0.0 101682
06:00−22nnw349790 0.0 101756
09:00−18nnw359487 0.0 1019207
12:00−14nw238665 0.0 1019379
15:00−13nw248983 0.0 1019379
18:00−17sw239776 0.0 101826
21:00−20sw349879 0.1 101863
2 march, tue
tue200:00−20ssw479933 0.0 1015124
03:00−15ssw5109567 0.0 1012305
06:00−11ssw71395100 0.6 1007459
09:00−9ssw71394100 1.6 1004552
12:00−6ssw71295100 0.9 1000643
15:00−1ssw71494100 1.5 998702
18:000wsw61198100 1.4 996600
21:00−3wsw51191100 1.8 996311
3 march, wed
wed300:00−6wsw511944 0.0 996258
03:00−5w6119350 0.0 997437
06:00−6w599596 0.1 997296
09:00−4w579698 1.2 999392
12:00−3w4596100 0.9 999342
15:00−2w3597100 1.6 1000325
18:00−4wnw5994100 1.0 1000377
21:00−6nw5119198 1.1 1002425
4 march, thu
thu400:00−11wnw489438 0.0 1002141
03:00−14w459618 0.0 100483
06:00−15wsw479763 0.0 1004104
09:00−11sw489574 0.1 1004272
12:00−7sw5993100 0.0 1002475
15:00−4ssw71292100 0.2 1000791
18:00−4ssw81595100 1.3 996870
21:00−2sw91695100 2.9 993947
5 march, fri
fri500:000wsw91596100 1.9 991969
03:00−1wsw91595100 3.6 991870
06:00−5w81585100 1.1 994814
09:00−7w91488100 1.2 998770
12:00−5w81288100 0.0 1003753
15:00−6w61086100 0.1 1007660
18:00−11w489142 0.0 1009152
21:00−15wnw349121 0.0 101231